TimeCEST,TemperatureF,Dew PointF,Humidity,Sea Level PressureIn,VisibilityMPH,Wind Direction,Wind SpeedMPH,Gust SpeedMPH,PrecipitationIn,Events,Conditions,WindDirDegrees,DateUTC
12:05 AM,39.2,39.2,100,30.24,6.2,South,1.2,-,N/A,,Unknown,180,2012-10-07 22:05:00
12:14 AM,39.2,39.2,100,30.24,-9999.0,SSW,1.2,-,N/A,,Mist,200,2012-10-07 22:14:00
12:17 AM,39.2,39.2,100,30.24,1.7,SSW,1.2,-,N/A,,Mist,210,2012-10-07 22:17:00
12:25 AM,39.2,39.2,100,30.24,6.2,SSW,1.2,-,N/A,,Unknown,200,2012-10-07 22:25:00
12:35 AM,39.2,39.2,100,30.24,6.2,SSW,1.2,-,N/A,,Unknown,210,2012-10-07 22:35:00
12:55 AM,39.2,39.2,100,30.24,6.2,SW,1.2,-,N/A,,Unknown,220,2012-10-07 22:55:00
1:12 AM,37.4,37.4,100,30.24,1.8,South,2.3,-,N/A,,Mist,170,2012-10-07 23:12:00
1:16 AM,37.4,37.4,100,30.24,6.2,South,2.3,-,N/A,,Unknown,180,2012-10-07 23:16:00
1:25 AM,39.2,39.2,100,30.24,6.2,SSW,1.2,-,N/A,,Unknown,200,2012-10-07 23:25:00
1:38 AM,37.4,37.4,100,30.24,6.2,SSW,1.2,-,N/A,,Unknown,210,2012-10-07 23:38:00
1:55 AM,37.4,37.4,100,30.24,6.2,SSE,1.2,-,N/A,,Unknown,160,2012-10-07 23:55:00
2:00 AM,38,38,100,30.25,10,Calm,Calm,,,,Partly Cloudy,,2012-10-08 00:00:00
2:25 AM,37.4,37.4,100,30.24,6.2,South,1.2,-,N/A,,Partly Cloudy,190,2012-10-08 00:25:00
2:46 AM,37.4,37.4,100,30.21,4.3,SSE,2.3,-,N/A,,Overcast,160,2012-10-08 00:46:00
2:47 AM,37.4,37.4,100,30.21,6.2,SSE,2.3,-,N/A,,Overcast,150,2012-10-08 00:47:00
2:55 AM,37.4,37.4,100,30.21,6.2,SE,2.3,-,N/A,,Overcast,140,2012-10-08 00:55:00
3:08 AM,37.4,37.4,100,30.21,6.2,SSE,2.3,-,N/A,,Partly Cloudy,160,2012-10-08 01:08:00
3:10 AM,37.4,37.4,100,30.21,-9999.0,SSE,2.3,-,N/A,,Partly Cloudy,160,2012-10-08 01:10:00
3:16 AM,37.4,37.4,100,30.21,5.6,South,2.3,-,N/A,,Mist,170,2012-10-08 01:16:00
3:25 AM,37.4,37.4,100,30.21,6.2,South,2.3,-,N/A,,Partly Cloudy,170,2012-10-08 01:25:00
3:35 AM,37.4,37.4,100,30.21,3.7,SE,2.3,-,N/A,,Scattered Clouds,130,2012-10-08 01:35:00
3:38 AM,37.4,37.4,100,30.21,5.0,SE,2.3,-,N/A,,Mostly Cloudy,130,2012-10-08 01:38:00
3:55 AM,37.4,37.4,100,30.21,6.2,SE,2.3,-,N/A,,Partly Cloudy,140,2012-10-08 01:55:00
3:59 AM,37.4,37.4,100,30.21,1.7,SE,2.3,-,N/A,,Mist,140,2012-10-08 01:59:00
4:06 AM,37.4,37.4,100,30.21,5.6,SSE,3.5,-,N/A,,Mist,150,2012-10-08 02:06:00
4:16 AM,37.4,37.4,100,30.18,6.2,SSE,3.5,-,N/A,,Partly Cloudy,150,2012-10-08 02:16:00
4:25 AM,37.4,37.4,100,30.18,6.2,SSE,3.5,-,N/A,,Unknown,150,2012-10-08 02:25:00
4:31 AM,37.4,37.4,100,30.18,4.3,SSE,2.3,-,N/A,,Mist,150,2012-10-08 02:31:00
4:32 AM,37.4,37.4,100,30.18,5.6,SE,2.3,-,N/A,,Mist,140,2012-10-08 02:32:00
4:40 AM,37.4,37.4,100,30.18,3.7,SE,2.3,-,N/A,,Mist,130,2012-10-08 02:40:00
4:44 AM,37.4,37.4,100,30.18,-9999.0,SE,3.5,-,N/A,,Mist,130,2012-10-08 02:44:00
4:48 AM,35.6,35.6,100,30.18,3.7,SE,3.5,-,N/A,,Partly Cloudy,130,2012-10-08 02:48:00
4:55 AM,35.6,35.6,100,30.18,5.6,SE,2.3,-,N/A,,Mostly Cloudy,140,2012-10-08 02:55:00
5:00 AM,37,37,100,30.20,7,SSE,2.2,,,,Partly Cloudy,150,2012-10-08 03:00:00
5:07 AM,37.4,37.4,100,30.18,6.2,SSE,2.3,-,N/A,,Scattered Clouds,150,2012-10-08 03:07:00
5:12 AM,37.4,37.4,100,30.18,3.7,SE,2.3,-,N/A,,Mist,140,2012-10-08 03:12:00
5:25 AM,35.6,35.6,100,30.18,4.3,SSE,2.3,-,N/A,,Partly Cloudy,150,2012-10-08 03:25:00
5:30 AM,37.4,37.4,100,30.18,5.0,SSE,2.3,-,N/A,,Partly Cloudy,150,2012-10-08 03:30:00
5:34 AM,37.4,37.4,100,30.18,3.7,SSE,2.3,-,N/A,,Partly Cloudy,160,2012-10-08 03:34:00
5:38 AM,37.4,37.4,100,30.18,6.2,SSE,1.2,-,N/A,,Unknown,150,2012-10-08 03:38:00
5:50 AM,37.4,37.4,100,30.18,3.1,SE,1.2,-,N/A,,Mist,140,2012-10-08 03:50:00
5:55 AM,37.4,37.4,100,30.18,3.1,SE,1.2,-,N/A,,Mist,140,2012-10-08 03:55:00
6:00 AM,37.4,37.4,100,30.18,-9999.0,SE,1.2,-,N/A,,Mist,140,2012-10-08 04:00:00
6:02 AM,37.4,37.4,100,30.18,0.8,SE,1.2,-,N/A,,Mist,130,2012-10-08 04:02:00
6:08 AM,37.4,37.4,100,30.18,3.7,SE,1.2,-,N/A,,Mist,130,2012-10-08 04:08:00
6:10 AM,37.4,37.4,100,30.18,-9999.0,ESE,1.2,-,N/A,,Mist,120,2012-10-08 04:10:00
6:13 AM,37.4,37.4,100,30.18,5.0,ESE,1.2,-,N/A,,Mist,110,2012-10-08 04:13:00
6:15 AM,37.4,37.4,100,30.18,5.0,ESE,1.2,-,N/A,,Mist,110,2012-10-08 04:15:00
6:18 AM,37.4,37.4,100,30.18,4.3,ESE,1.2,-,N/A,,Mist,110,2012-10-08 04:18:00
6:25 AM,35.6,35.6,100,30.18,6.2,SE,1.2,-,N/A,,Unknown,130,2012-10-08 04:25:00
6:33 AM,35.6,35.6,100,30.18,0.9,ESE,1.2,-,N/A,,Mist,110,2012-10-08 04:33:00
6:40 AM,35.6,35.6,100,30.15,-9999.0,ESE,2.3,-,N/A,,Mist,110,2012-10-08 04:40:00
6:45 AM,35.6,35.6,100,30.15,3.1,ESE,2.3,-,N/A,,Mist,120,2012-10-08 04:45:00
6:47 AM,35.6,35.6,100,30.15,5.6,SE,2.3,-,N/A,,Mist,130,2012-10-08 04:47:00
6:55 AM,37.4,37.4,100,30.15,3.1,SE,3.5,-,N/A,,Mist,130,2012-10-08 04:55:00
7:01 AM,37.4,37.4,100,30.15,5.0,ESE,3.5,-,N/A,,Mist,120,2012-10-08 05:01:00
7:11 AM,39.2,39.2,100,30.15,5.6,ESE,3.5,-,N/A,,Mist,120,2012-10-08 05:11:00
7:25 AM,35.6,35.6,100,30.15,5.0,SSE,3.5,-,N/A,,Mist,150,2012-10-08 05:25:00
7:26 AM,35.6,35.6,100,30.15,3.7,SSE,3.5,-,N/A,,Mist,150,2012-10-08 05:26:00
7:36 AM,35.6,35.6,100,30.15,2.2,SSE,2.3,-,N/A,,Mist,150,2012-10-08 05:36:00
7:40 AM,35.6,35.6,100,30.15,3.7,South,2.3,-,N/A,,Mist,170,2012-10-08 05:40:00
7:44 AM,35.6,35.6,100,30.15,5.0,South,2.3,-,N/A,,Scattered Clouds,180,2012-10-08 05:44:00
7:50 AM,35.6,35.6,100,30.15,4.3,SSE,2.3,-,N/A,,Scattered Clouds,160,2012-10-08 05:50:00
7:55 AM,37.4,37.4,100,30.15,-9999.0,SE,1.2,-,N/A,,Partly Cloudy,130,2012-10-08 05:55:00
7:59 AM,37.4,37.4,100,30.15,-9999.0,ESE,2.3,-,N/A,,Scattered Clouds,120,2012-10-08 05:59:00
8:00 AM,37,37,100,30.17,2,ESE,2.2,,,,Mist,120,2012-10-08 06:00:00
8:00 AM,37.4,37.4,100,30.15,2.5,ESE,2.3,-,N/A,,Mostly Cloudy,120,2012-10-08 06:00:00
8:07 AM,35.6,35.6,100,30.15,3.7,SSE,2.3,-,N/A,,Scattered Clouds,150,2012-10-08 06:07:00
8:13 AM,35.6,35.6,100,30.15,4.3,SSE,2.3,-,N/A,,Partly Cloudy,160,2012-10-08 06:13:00
8:16 AM,35.6,35.6,100,30.15,5.6,SSE,2.3,-,N/A,,Partly Cloudy,160,2012-10-08 06:16:00
8:25 AM,35.6,35.6,100,30.15,3.1,SSE,2.3,-,N/A,,Mist,160,2012-10-08 06:25:00
8:29 AM,35.6,35.6,100,30.15,2.2,SSE,2.3,-,N/A,,Mist,150,2012-10-08 06:29:00
8:33 AM,35.6,35.6,100,30.15,2.8,SSE,3.5,-,N/A,,Mist,150,2012-10-08 06:33:00
8:37 AM,37.4,37.4,100,30.15,3.1,SE,3.5,-,N/A,,Mist,140,2012-10-08 06:37:00
8:45 AM,39.2,39.2,100,30.15,5.0,SE,3.5,-,N/A,,Mostly Cloudy,130,2012-10-08 06:45:00
8:47 AM,39.2,39.2,100,30.15,5.6,SE,3.5,-,N/A,,Overcast,140,2012-10-08 06:47:00
8:55 AM,39.2,39.2,100,30.15,6.2,SE,4.6,-,N/A,,Overcast,140,2012-10-08 06:55:00
9:05 AM,42.8,42.8,100,30.15,6.2,SE,3.5,-,N/A,,Partly Cloudy,140,2012-10-08 07:05:00
9:25 AM,44.6,44.6,100,30.15,6.2,SE,3.5,-,N/A,,Overcast,140,2012-10-08 07:25:00
9:55 AM,46.4,44.6,93,30.12,6.2,SE,3.5,-,N/A,,Overcast,140,2012-10-08 07:55:00
10:25 AM,46.4,44.6,93,30.12,6.2,SE,5.8,-,N/A,,Mostly Cloudy,130,2012-10-08 08:25:00
10:55 AM,48.2,44.6,87,30.12,6.2,SE,4.6,-,N/A,,Overcast,130,2012-10-08 08:55:00
11:00 AM,49,45,80,30.13,14,ESE,4.5,,,,Overcast,120,2012-10-08 09:00:00
11:25 AM,51.8,44.6,76,30.09,6.2,ESE,4.6,-,N/A,,Overcast,120,2012-10-08 09:25:00
11:55 AM,51.8,44.6,76,30.09,6.2,SE,6.9,-,N/A,,Overcast,140,2012-10-08 09:55:00
12:25 PM,55.4,46.4,72,30.09,6.2,SSE,5.8,-,N/A,,Overcast,160,2012-10-08 10:25:00
12:55 PM,57.2,44.6,63,30.09,6.2,SE,5.8,-,N/A,,Mostly Cloudy,140,2012-10-08 10:55:00
1:25 PM,57.2,44.6,63,30.06,6.2,SE,5.8,-,N/A,,Mostly Cloudy,130,2012-10-08 11:25:00
1:46 PM,57.2,42.8,59,30.06,4.3,SSE,6.9,-,N/A,,Haze,160,2012-10-08 11:46:00
1:49 PM,57.2,42.8,59,30.06,6.2,SSE,6.9,-,N/A,,Overcast,160,2012-10-08 11:49:00
1:55 PM,57.2,42.8,59,30.06,6.2,SSE,6.9,-,N/A,,Overcast,150,2012-10-08 11:55:00
2:00 PM,58,44,48,30.06,22,SE,6.7,,,,Partly Cloudy,140,2012-10-08 12:00:00
2:08 PM,57.2,42.8,59,30.04,6.2,SE,5.8,-,N/A,,Overcast,130,2012-10-08 12:08:00
2:25 PM,59.0,44.6,59,30.04,6.2,SE,5.8,-,N/A,,Overcast,130,2012-10-08 12:25:00
2:55 PM,57.2,42.8,59,30.01,6.2,ESE,5.8,-,N/A,,Overcast,120,2012-10-08 12:55:00
3:25 PM,57.2,42.8,59,30.01,6.2,ESE,5.8,-,N/A,,Overcast,120,2012-10-08 13:25:00
3:32 PM,57.2,42.8,59,30.01,6.2,ESE,5.8,-,N/A,,Overcast,120,2012-10-08 13:32:00
3:55 PM,57.2,44.6,63,30.01,6.2,ESE,5.8,-,N/A,,Overcast,120,2012-10-08 13:55:00
4:25 PM,57.2,44.6,63,29.98,6.2,ESE,6.9,-,N/A,,Overcast,120,2012-10-08 14:25:00
4:55 PM,57.2,44.6,63,29.98,6.2,SE,5.8,-,N/A,,Overcast,130,2012-10-08 14:55:00
5:00 PM,57,45,53,29.98,25,ESE,6.7,,,,Overcast,120,2012-10-08 15:00:00
5:25 PM,57.2,44.6,63,29.95,6.2,ESE,4.6,-,N/A,,Overcast,110,2012-10-08 15:25:00
5:43 PM,55.4,44.6,67,29.95,3.1,ESE,5.8,-,N/A,,Haze,120,2012-10-08 15:43:00
5:47 PM,55.4,44.6,67,29.95,6.2,SE,5.8,-,N/A,,Overcast,130,2012-10-08 15:47:00
5:55 PM,55.4,44.6,67,29.95,6.2,SE,6.9,-,N/A,,Overcast,130,2012-10-08 15:55:00
6:08 PM,55.4,44.6,67,29.92,6.2,SE,8.1,-,N/A,,Overcast,130,2012-10-08 16:08:00
6:25 PM,55.4,44.6,67,29.92,6.2,ESE,5.8,-,N/A,,Overcast,120,2012-10-08 16:25:00
6:55 PM,53.6,44.6,72,29.92,6.2,ESE,5.8,-,N/A,,Overcast,120,2012-10-08 16:55:00
7:25 PM,53.6,46.4,77,29.92,6.2,East,3.5,-,N/A,,Overcast,90,2012-10-08 17:25:00
7:55 PM,53.6,46.4,77,29.92,6.2,East,5.8,-,N/A,,Mostly Cloudy,90,2012-10-08 17:55:00
8:00 PM,54,46,67,29.92,19,East,4.5,,,,Partly Cloudy,100,2012-10-08 18:00:00
8:25 PM,53.6,46.4,77,29.89,6.2,ESE,3.5,-,N/A,,Overcast,120,2012-10-08 18:25:00
8:55 PM,53.6,46.4,77,29.89,6.2,ESE,2.3,-,N/A,,Overcast,120,2012-10-08 18:55:00
9:25 PM,53.6,46.4,77,29.89,6.2,ESE,3.5,-,N/A,,Mostly Cloudy,120,2012-10-08 19:25:00
9:55 PM,53.6,46.4,77,29.89,6.2,ESE,2.3,-,N/A,,Overcast,120,2012-10-08 19:55:00
10:25 PM,51.8,48.2,88,29.89,6.2,NE,2.3,-,N/A,,Overcast,50,2012-10-08 20:25:00
10:55 PM,51.8,48.2,88,29.86,6.2,SE,4.6,-,N/A,,Overcast,140,2012-10-08 20:55:00
11:00 PM,53,47,75,29.88,19,SE,2.2,,,,Partly Cloudy,130,2012-10-08 21:00:00
11:14 PM,53.6,48.2,82,29.86,4.3,SE,2.3,-,N/A,Rain,Rain,130,2012-10-08 21:14:00
11:18 PM,51.8,48.2,88,29.86,5.6,SE,1.2,-,N/A,Rain,Light Rain,130,2012-10-08 21:18:00
11:25 PM,51.8,48.2,88,29.86,6.2,SE,1.2,-,N/A,Rain,Light Rain,140,2012-10-08 21:25:00
11:34 PM,51.8,48.2,88,29.86,6.2,SE,1.2,-,N/A,Rain,Drizzle,140,2012-10-08 21:34:00
11:40 PM,51.8,48.2,88,29.86,5.6,ENE,1.2,-,N/A,,Light Drizzle,60,2012-10-08 21:40:00
11:41 PM,51.8,48.2,88,29.86,5.0,North,1.2,-,N/A,,Light Drizzle,10,2012-10-08 21:41:00
11:55 PM,51.8,50.0,94,29.86,6.2,NE,1.2,-,N/A,,Overcast,40,2012-10-08 21:55:00
11:56 PM,51.8,50.0,94,29.86,4.3,NE,1.2,-,N/A,,Overcast,40,2012-10-08 21:56:00